This is the latest recevied weather packets stored in our database for station/object DL1BWU. If no packets are shown the sender has not sent any weather packets the latest 10 day(s).
| Time | Temp. | Humidity | Pressure | Rain* | Wind** | Luminosity | Snow |
|---|---|---|---|---|---|---|---|
| 1777813515 | 28.89° C | 32% | 1011.1 hPa | 0 mm | - | - | - |
| 1777812914 | 28.89° C | 31% | 1011.1 hPa | 0 mm | - | - | - |
| 1777812314 | 28.89° C | 31% | 1011.2 hPa | 0 mm | - | - | - |
| 1777811714 | 28.89° C | 30% | 1011.2 hPa | 0 mm | - | - | - |
| 1777811114 | 28.89° C | 30% | 1011.2 hPa | 0 mm | - | - | - |
| 1777810514 | 29.44° C | 30% | 1011.6 hPa | 0 mm | - | - | - |
| 1777809914 | 28.89° C | 30% | 1011.5 hPa | 0 mm | - | - | - |
| 1777809314 | 28.89° C | 31% | 1011.6 hPa | 0 mm | - | - | - |
| 1777808714 | 28.89° C | 31% | 1011.6 hPa | 0 mm | - | - | - |
| 1777808114 | 28.89° C | 31% | 1011.9 hPa | 0 mm | - | - | - |
| 1777807514 | 28.89° C | 31% | 1011.7 hPa | 0 mm | - | - | - |
| 1777806914 | 28.33° C | 31% | 1012 hPa | 0 mm | - | - | - |
| 1777806314 | 28.33° C | 31% | 1012.1 hPa | 0 mm | - | - | - |
| 1777805714 | 27.78° C | 31% | 1012.2 hPa | 0 mm | - | - | - |
| 1777805114 | 27.78° C | 34% | 1012.2 hPa | 0 mm | - | - | - |
| 1777804514 | 27.22° C | 35% | 1012.2 hPa | 0 mm | - | - | - |
| 1777803914 | 27.22° C | 36% | 1012.2 hPa | 0 mm | - | - | - |
| 1777803314 | 26.67° C | 36% | 1012.4 hPa | 0 mm | - | - | - |
| 1777802714 | 26.67° C | 37% | 1012.6 hPa | 0 mm | - | - | - |
| 1777802114 | 26.11° C | 40% | 1012.6 hPa | 0 mm | - | - | - |
| 1777801514 | 25.56° C | 40% | 1012.7 hPa | 0 mm | - | - | - |
| 1777800914 | 25° C | 41% | 1012.7 hPa | 0 mm | - | - | - |
| 1777800314 | 24.44° C | 42% | 1013 hPa | 0 mm | - | - | - |
| 1777799714 | 24.44° C | 43% | 1012.8 hPa | 0 mm | - | - | - |
| 1777799114 | 23.33° C | 45% | 1012.9 hPa | 0 mm | - | - | - |
* Rain latest hour (hover to see other rain measurements)
** Current wind speed in m/s (hover to see current wind gust speed)